Find Starlink 30176

NORAD ID: 57477 Int'l Des: 2023-107 Owner: SPXS Country: US Constellation: starlink operational
LEOCIRCULAR

Live-Position

3D-Globus wird geladen...

Über Starlink 30176

Beschreibung wird geladen...

Nächste Überflüge

Passes for default location (London). Set your location on the main map for personalized predictions.

Höhenverlauf

Loading altitude history...

Zweizeiliger Elementsatz

1 57477U 23107W 26129.91550385 .00015251 00000-0 56270-3 0 9996
2 57477 43.0032 350.0845 0000836 269.3713 90.7043 15.27574061154514
Epoch: 9. Mai 2026 • Age: 18 hours

Aktueller Status

Höhe 485.2 km
Geschwindigkeit 7.63 km/s
Subsatellitenpunkt 36.41°N, 63.07°W
Startdatum 28. Juli 2023
Alter 2.7 years
Typ internet

Technische Details

Klassifizierung Payload
Masse 730.00 kg
Trockenmasse 700.00 kg
Gesamtmasse 730.00 kg
Länge 0.30 m
Durchmesser 4.10 m
Spannweite 29.00 m
Form Box + pan
Hersteller SPXS
Bus-Typ Starlink V2M
Phasenstatus In Orbit
Besitzer/Staat SPXS/US

Most Searched